M2 PATHFINDER (45727 NORAD) Tracking and Keplerian Element Data

This shows tracking and keplerian element data for the satellite.

Feedback or suggestion? Click here.




ElementValue
Catalog45727
NameM2 PATHFINDER
Epoch Orbit49
Epoch Day186.04676128
Epoch Year2020
RAAN5.8021
Inclination97.7025
Eccentricity0.0011746
Argument of Perigee241.4347
Mean Anonmoly118.5679
Mean Motion14.91199545
Decay Rate-6.5E-07
L11 45727U 20037E 20186.04676128 -.00000065 00000-0 -93328-6 0 9992
L22 45727 97.7025 5.8021 0011746 241.4347 118.5679 14.91199545 495

Live tracking and technical data element details for M2 PATHFINDER (NORAD 45727). M2 PATHFINDER can be tracked NOW for your location showing map with azimuth and elevation plus other details from your city location.

Track the satellite on the map from your city or location and see movement details for azimuth, elevation, latitude, longitude, range, height, and movement on the map or in text.







IsCatalogInMostPopularTable: catalog: 45727, numindb: 3
Update: records affected: 1



GetName: 45727 M2 PATHFINDER

Hit Count: updated at: Sun, 05 Jul 2020 16:08:33 GMT